HVDC transfer

From www.emi.ea.govt.nz provided by the Electricity Authority (New Zealand)
Run at: 20240506000037

Parameters
Date range,27 Jul 2021 - 27 Jul 2021
Time scale,Trading period
Show,Average flow (MW)

Period start,Period end,Trading period,Direction,Energy transfer (GWh),Peak flow (MW),Average flow (MW)
27/07/2021 00:00:00,27/07/2021 00:30:00,1,Southward at Benmore,-0.028,-57,-57
27/07/2021 00:30:00,27/07/2021 01:00:00,2,Southward at Benmore,-0.059,-118,-118
27/07/2021 01:00:00,27/07/2021 01:30:00,3,Southward at Benmore,-0.057,-115,-115
27/07/2021 01:30:00,27/07/2021 02:00:00,4,Southward at Benmore,-0.027,-54,-54
27/07/2021 02:00:00,27/07/2021 02:30:00,5,Southward at Benmore,-0.027,-55,-55
27/07/2021 02:30:00,27/07/2021 03:00:00,6,Southward at Benmore,-0.021,-43,-43
27/07/2021 03:00:00,27/07/2021 03:30:00,7,Southward at Benmore,-0.027,-55,-55
27/07/2021 03:30:00,27/07/2021 04:00:00,8,Southward at Benmore,-0.031,-62,-62
27/07/2021 04:00:00,27/07/2021 04:30:00,9,Southward at Benmore,-0.005,-11,-11
27/07/2021 04:30:00,27/07/2021 05:00:00,10,Northward at Haywards,0.013,26,26
27/07/2021 05:00:00,27/07/2021 05:30:00,11,Northward at Haywards,0.017,33,33
27/07/2021 05:30:00,27/07/2021 06:00:00,12,Northward at Haywards,0.084,168,168
27/07/2021 06:00:00,27/07/2021 06:30:00,13,Northward at Haywards,0.121,241,241
27/07/2021 06:30:00,27/07/2021 07:00:00,14,Northward at Haywards,0.194,387,387
27/07/2021 07:00:00,27/07/2021 07:30:00,15,Northward at Haywards,0.288,575,575
27/07/2021 07:30:00,27/07/2021 08:00:00,16,Northward at Haywards,0.340,679,679
27/07/2021 08:00:00,27/07/2021 08:30:00,17,Northward at Haywards,0.341,682,682
27/07/2021 08:30:00,27/07/2021 09:00:00,18,Northward at Haywards,0.334,667,667
27/07/2021 09:00:00,27/07/2021 09:30:00,19,Northward at Haywards,0.322,644,644
27/07/2021 09:30:00,27/07/2021 10:00:00,20,Northward at Haywards,0.263,526,526
27/07/2021 10:00:00,27/07/2021 10:30:00,21,Northward at Haywards,0.272,543,543
27/07/2021 10:30:00,27/07/2021 11:00:00,22,Northward at Haywards,0.278,555,555
27/07/2021 11:00:00,27/07/2021 11:30:00,23,Northward at Haywards,0.279,558,558
27/07/2021 11:30:00,27/07/2021 12:00:00,24,Northward at Haywards,0.283,565,565
27/07/2021 12:00:00,27/07/2021 12:30:00,25,Northward at Haywards,0.275,550,550
27/07/2021 12:30:00,27/07/2021 13:00:00,26,Northward at Haywards,0.285,570,570
27/07/2021 13:00:00,27/07/2021 13:30:00,27,Northward at Haywards,0.283,566,566
27/07/2021 13:30:00,27/07/2021 14:00:00,28,Northward at Haywards,0.305,610,610
27/07/2021 14:00:00,27/07/2021 14:30:00,29,Northward at Haywards,0.298,596,596
27/07/2021 14:30:00,27/07/2021 15:00:00,30,Northward at Haywards,0.307,613,613
27/07/2021 15:00:00,27/07/2021 15:30:00,31,Northward at Haywards,0.354,708,708
27/07/2021 15:30:00,27/07/2021 16:00:00,32,Northward at Haywards,0.385,770,770
27/07/2021 16:00:00,27/07/2021 16:30:00,33,Northward at Haywards,0.360,720,720
27/07/2021 16:30:00,27/07/2021 17:00:00,34,Northward at Haywards,0.371,742,742
27/07/2021 17:00:00,27/07/2021 17:30:00,35,Northward at Haywards,0.349,698,698
27/07/2021 17:30:00,27/07/2021 18:00:00,36,Northward at Haywards,0.331,662,662
27/07/2021 18:00:00,27/07/2021 18:30:00,37,Northward at Haywards,0.324,647,647
27/07/2021 18:30:00,27/07/2021 19:00:00,38,Northward at Haywards,0.319,637,637
27/07/2021 19:00:00,27/07/2021 19:30:00,39,Northward at Haywards,0.304,608,608
27/07/2021 19:30:00,27/07/2021 20:00:00,40,Northward at Haywards,0.335,670,670
27/07/2021 20:00:00,27/07/2021 20:30:00,41,Northward at Haywards,0.343,685,685
27/07/2021 20:30:00,27/07/2021 21:00:00,42,Northward at Haywards,0.357,713,713
27/07/2021 21:00:00,27/07/2021 21:30:00,43,Northward at Haywards,0.351,701,701
27/07/2021 21:30:00,27/07/2021 22:00:00,44,Northward at Haywards,0.307,614,614
27/07/2021 22:00:00,27/07/2021 22:30:00,45,Northward at Haywards,0.255,509,509
27/07/2021 22:30:00,27/07/2021 23:00:00,46,Northward at Haywards,0.189,378,378
27/07/2021 23:00:00,27/07/2021 23:30:00,47,Northward at Haywards,0.190,380,380
27/07/2021 23:30:00,28/07/2021 00:00:00,48,Northward at Haywards,0.147,294,294
